CAPE
0 0 1 0 0 0 0 0 0 0 0 0 0 0 0 0 0 0 0 0 0 0 0 5 0 75 129 56 22 18 0 5 0 0 0 0 0 3 0 0 0 0 0 0
0 1 0 0 0 0 0 0 0 0 0 0 0 0 0 0 0 0 0 0 0 0 0 0 29 24 130 79 40 4 0 0 0 1 0 0 0 0 0 0 0 0 0 0
1 0 0 0 0 1 0 0 0 0 0 0 0 0 0 0 0 0 0 0 0 0 0 0 20 73 102 91 49 13 1 0 0 0 2 0 0 2 0 0 0 0 0 0
0 0 0 0 0 0 0 0 0 0 0 0 0 0 0 0 0 0 0 0 0 0 0 0 0 67 95 88 91 44 4 0 0 0 0 0 0 0 0 0 0 0 0 0
0 0 0 1 1 0 0 0 0 0 0 0 0 0 0 0 0 0 0 0 0 0 0 0 0 0 114 124 76 76 25 2 0 2 0 0 2 1 0 2 0 0 0 0
0 0 0 0 0 0 1 0 0 1 0 1 0 0 0 0 0 0 0 0 0 0 0 0 0 0 2 187 183 92 55 29 0 0 0 0 0 1 2 2 4 1 0 0
0 0 0 0 0 0 0 0 0 0 0 0 0 0 0 0 0 0 0 0 0 0 0 0 0 0 0 51 241 233 131 76 53 8 0 0 0 1 11 0 4 4 0 0
0 0 5 0 0 1 0 1 0 0 0 0 0 0 0 0 0 0 0 0 0 0 0 0 0 0 0 0 69 253 149 174 98 35 6 0 0 1 7 4 1 0 0 0
0 0 0 2 1 3 1 0 1 0 0 0 0 0 0 0 0 0 0 0 0 0 0 0 0 0 0 0 96 79 107 257 115 78 33 1 0 0 1 1 8 0 0 0
0 0 0 0 0 0 2 0 0 0 0 0 0 0 0 0 0 0 0 1 0 0 0 0 0 0 0 0 10 128 157 227 240 129 121 39 15 12 24 30 2 11 0 0
1 0 0 0 0 1 0 0 0 0 0 0 0 0 4 0 0 0 0 1 2 0 1 0 0 0 0 0 0 126 212 235 328 280 178 139 58 86 66 78 50 31 25 1
0 2 0 0 0 0 0 0 0 1 0 0 0 0 0 2 0 0 0 0 0 2 2 2 1 1 0 2 3 1 0 5 24 193 132 147 154 129 55 72 81 73 55 10
0 0 0 0 0 0 0 0 1 0 0 0 0 0 0 0 1 1 1 0 0 0 1 2 2 3 4 4 4 4 4 3 0 0 47 87 95 107 76 72 79 92 88 66
0 1 0 0 0 0 0 0 0 0 0 0 0 0 0 0 0 0 0 1 0 0 0 0 2 3 4 3 2 2 3 3 4 1 2 1 1 0 0 14 20 60 78 51
1 1 1 0 0 0 0 0 0 2 0 0 0 0 2 1 0 0 1 1 1 1 1 0 1 3 4 3 2 2 2 2 0 0 0 2 4 2 3 1 1 0 0 5
0 1 0 0 0 0 0 0 0 0 0 0 1 0 0 0 0 0 1 2 3 4 3 3 1 2 4 5 3 3 2 3 0 0 0 0 0 0 0 0 1 1 1 1
0 1 1 0 0 0 1 0 0 0 0 1 0 0 0 0 0 0 0 0 0 0 1 0 0 0 0 0 1 1 1 1 0 0 0 0 0 0 0 0 0 0 1 0
0 0 1 1 0 0 0 0 0 1 0 0 1 0 0 0 0 0 0 0 0 0 1 1 0 0 0 0 0 0 0 0 0 0 0 0 0 0 0 0 0 0 0 0
1 0 0 1 0 0 0 0 0 0 0 0 0 0 0 0 0 0 0 0 0 0 0 1 0 0 0 0 0 0 0 0 0 0 0 0 0 0 0 0 0 0 0 0
0 0 0 0 0 0 0 0 0 0 0 0 0 0 0 0 0 0 0 0 0 0 0 0 0 0 0 0 0 0 0 0 0 0 0 0 0 0 0 0 0 0 0 0
0 0 0 0 0 0 0 0 0 0 0 0 0 0 0 0 0 0 0 0 0 0 0 0 0 0 0 0 0 0 0 0 0 0 0 0 0 0 0 0 0 0 0 0
0 0 0 0 0 0 0 0 0 0 0 0 0 0 0 0 0 0 0 0 0 0 0 0 0 0 0 0 0 0 0 0 0 0 0 0 0 0 1 1 2 1 1 2
0 0 0 0 0 0 0 0 0 0 0 0 0 0 0 0 0 0 0 0 0 0 0 0 0 0 0 0 0 0 0 0 0 0 0 0 0 0 0 2 1 1 1 2
0 0 0 0 0 0 0 0 0 0 0 0 0 0 0 0 0 0 0 0 0 0 0 0 0 0 0 0 0 0 0 0 0 0 0 0 0 0 0 1 0 1 1 2
0 0 0 0 0 0 0 0 0 0 0 0 0 0 0 0 0 0 0 0 0 0 0 0 0 0 0 0 0 0 0 0 0 0 0 0 0 0 0 1 1 0 0 0
0 0 0 0 0 0 0 0 0 0 0 0 0 0 0 0 0 0 0 0 0 0 0 0 0 0 0 0 0 0 0 0 0 0 0 0 0 0 0 0 0 0 0 0
CIN
-2 -0 -0 -1 -0 -0 -0 -0 -0 -0 -0 -0 -0 -0 -0 -0 -0 -0 -0 -0 -0 -0 -0 -35 -0 -139 -125 -90 -159 -216 -0 -218 -0 -0 -0 -0 -0 -5 -0 -0 -0 -0 -0 -0
-2 -0 -0 -0 -0 -0 -0 -0 -0 -0 -0 -0 -0 -0 -0 -0 -0 -0 -0 -0 -0 -0 -0 -0 -56 -99 -119 -125 -136 -188 -0 -0 -0 -19 -0 -0 -0 -0 -0 -0 -0 -0 -0 -0
-0 -0 -0 -0 -0 -0 -0 -0 -0 -0 -0 -0 -0 -0 -0 -0 -0 -0 -0 -0 -0 -0 -0 -0 -26 -114 -124 -149 -128 -157 -94 -0 -0 -0 -14 -0 -0 -1 -0 -0 -0 -0 -0 -0
-0 -0 -0 -0 -0 -0 -1 -0 -0 -0 -0 -0 -0 -0 -0 -0 -0 -0 -0 -0 -0 -0 -0 -0 -0 -51 -97 -155 -172 -118 -197 -0 -0 -0 -0 -10 -0 -0 -0 -0 -0 -0 -0 -0
-0 -0 -1 -1 -0 -0 -1 -0 -0 -0 -3 -0 -0 -0 -0 -0 -0 -0 -0 -0 -0 -0 -0 -0 -0 -0 -39 -78 -139 -161 -139 -186 -3 -0 -0 -0 -3 -6 -0 -3 -0 -0 -0 -0
-0 -0 -1 -0 -0 -1 -5 -1 -0 -0 -0 -0 -0 -0 -0 -0 -0 -0 -0 -0 -0 -0 -0 -0 -0 -0 -1 -46 -66 -96 -89 -131 -12 -0 -0 -0 -0 -1 -2 -4 -2 -1 -0 -0
-0 -0 -0 -0 -0 -0 -0 -4 -0 -0 -0 -0 -0 -0 -0 -0 -0 -0 -0 -0 -0 -0 -0 -0 -0 -0 -0 -24 -43 -55 -57 -75 -128 -234 -0 -0 -0 -0 -3 -6 -6 -2 -0 -0
-0 -0 -1 -0 -0 -0 -0 -2 -0 -0 -0 -0 -0 -0 -0 -0 -0 -0 -0 -0 -0 -0 -0 -0 -0 -0 -0 -0 -34 -42 -27 -62 -96 -189 -246 -0 -0 -89 -1 -5 -9 -1 -0 -0
-0 -0 -0 -5 -9 -2 -0 -0 -1 -2 -0 -0 -0 -0 -0 -0 -0 -0 -0 -0 -0 -0 -0 -0 -0 -0 -0 -0 -42 -65 -36 -37 -73 -136 -171 -97 -0 -0 -32 -1 -5 -0 -0 -0
-0 -0 -0 -0 -0 -0 -0 -0 -0 -0 -0 -0 -0 -0 -0 -0 -0 -0 -0 -0 -0 -0 -0 -0 -0 -0 -0 -0 -99 -31 -27 -36 -40 -89 -99 -119 -118 -78 -25 -26 -44 -48 -0 -0
-8 -0 -0 -0 -0 -0 -0 -0 -0 -0 -0 -0 -0 -0 -0 -0 -0 -0 -0 -0 -0 -0 -1 -0 -0 -0 -0 -0 -0 -41 -37 -24 -4 -6 -27 -47 -149 -77 -26 -18 -24 -37 -61 -71
-2 -0 -0 -0 -0 -0 -0 -0 -0 -2 -0 -0 -0 -0 -0 -0 -0 -0 -0 -0 -0 -0 -0 -0 -0 -0 -0 -0 -0 -0 -0 -1 -26 -10 -20 -9 -46 -91 -57 -12 -31 -24 -11 -45
-0 -0 -0 -0 -0 -0 -0 -0 -0 -0 -0 -0 -0 -0 -0 -0 -0 -0 -0 -0 -0 -0 -0 -0 -0 -0 -0 -0 -0 -0 -0 -0 -0 -0 -15 -37 -14 -56 -61 -13 -23 -31 -15 -35
-0 -0 -0 -0 -0 -0 -0 -0 -0 -0 -0 -0 -0 -0 -0 -0 -0 -0 -0 -0 -0 -0 -0 -0 -0 -0 -0 -0 -0 -0 -0 -0 -0 -0 -0 -0 -0 -0 -4 -28 -35 -22 -18 -30
-1 -0 -0 -0 -0 -0 -0 -0 -0 -0 -1 -0 -0 -0 -0 -0 -0 -0 -0 -0 -0 -0 -0 -0 -0 -0 -0 -0 -0 -0 -0 -0 -0 -0 -0 -0 -0 -0 -0 -0 -0 -0 -0 -10
-0 -0 -0 -0 -0 -0 -0 -0 -0 -0 -0 -0 -0 -0 -0 -0 -0 -0 -0 -0 -0 -0 -0 -0 -0 -0 -0 -0 -0 -0 -0 -0 -0 -0 -0 -0 -0 -0 -0 -0 -0 -0 -0 -0
-0 -0 -0 -0 -0 -0 -0 -0 -0 -0 -0 -0 -0 -0 -0 -0 -0 -0 -0 -0 -0 -0 -0 -0 -0 -0 -0 -0 -0 -0 -0 -0 -0 -0 -0 -0 -0 -0 -0 -0 -0 -0 -0 -0
-0 -0 -0 -0 -0 -0 -0 -0 -0 -0 -0 -0 -0 -0 -0 -0 -0 -0 -0 -0 -0 -0 -0 -0 -0 -0 -0 -0 -0 -0 -0 -0 -0 -0 -0 -0 -0 -0 -0 -0 -0 -0 -0 -0
-0 -0 -0 -0 -0 -0 -0 -0 -0 -0 -0 -0 -0 -0 -0 -0 -0 -0 -0 -0 -0 -0 -0 -0 -0 -0 -0 -0 -0 -0 -0 -0 -0 -0 -0 -0 -0 -0 -0 -0 -0 -0 -0 -0
-0 -0 -0 -0 -0 -0 -0 -0 -0 -0 -0 -0 -0 -0 -0 -0 -0 -0 -0 -0 -0 -0 -0 -0 -0 -0 -0 -0 -0 -0 -0 -0 -0 -0 -0 -0 -0 -0 -0 -0 -0 -0 -0 -0
-0 -0 -0 -0 -0 -0 -0 -0 -0 -0 -0 -0 -0 -0 -0 -0 -0 -0 -0 -0 -0 -0 -0 -0 -0 -0 -0 -0 -0 -0 -0 -0 -0 -0 -0 -0 -0 -0 -0 -0 -0 -0 -0 -0
-0 -0 -0 -0 -0 -0 -0 -0 -0 -0 -0 -0 -0 -0 -0 -0 -0 -0 -0 -0 -0 -0 -0 -0 -0 -0 -0 -0 -0 -0 -0 -0 -0 -0 -0 -0 -0 -0 -0 -0 -0 -0 -0 -0
-0 -0 -0 -0 -0 -0 -0 -0 -0 -0 -0 -0 -0 -0 -0 -0 -0 -0 -0 -0 -0 -0 -0 -0 -0 -0 -0 -0 -0 -0 -0 -0 -0 -0 -0 -0 -0 -0 -0 -0 -0 -0 -0 -0
-0 -0 -0 -0 -0 -0 -0 -0 -0 -0 -0 -0 -0 -0 -0 -0 -0 -0 -0 -0 -0 -0 -0 -0 -0 -0 -0 -0 -0 -0 -0 -0 -0 -0 -0 -0 -0 -0 -0 -0 -0 -0 -0 -0
-0 -0 -0 -0 -0 -0 -0 -0 -0 -0 -0 -0 -0 -0 -0 -0 -0 -0 -0 -0 -0 -0 -0 -0 -0 -0 -0 -0 -0 -0 -0 -0 -0 -0 -0 -0 -0 -0 -0 -0 -0 -0 -0 -0
-0 -0 -0 -0 -0 -0 -0 -0 -0 -0 -0 -0 -0 -0 -0 -0 -0 -0 -0 -0 -0 -0 -0 -0 -0 -0 -0 -0 -0 -0 -0 -0 -0 -0 -0 -0 -0 -0 -0 -0 -0 -0 -0 -0
Wind_Speed
23 23 22 23 23 26 28 30 31 32 33 36 34 38 38 37 39 39 39 36 37 36 35 23 21 19 18 23 22 21 19 18 21 23 22 20 20 17 17 16 15 14 14 13
22 23 20 22 22 23 25 29 32 32 27 31 36 43 40 40 42 41 37 35 34 37 35 33 22 21 22 19 25 22 21 20 18 21 22 23 23 22 21 19 18 16 15 15
19 22 27 25 24 25 25 27 30 33 35 34 39 41 33 31 31 34 37 38 34 34 36 34 26 24 23 24 24 27 26 25 22 20 22 25 21 22 20 19 19 18 16 16
15 19 22 24 25 25 28 24 27 29 29 31 29 41 35 33 31 25 27 32 36 37 37 37 38 28 27 27 25 25 25 27 26 22 21 23 23 20 21 22 22 22 22 20
19 22 24 24 21 23 23 27 30 30 32 34 31 35 36 29 32 28 30 30 30 32 34 39 41 40 31 29 29 29 25 27 27 29 23 21 23 27 22 21 22 22 22 22
12 15 19 19 25 23 26 28 29 25 27 34 30 29 38 31 30 36 37 32 33 32 31 33 35 40 38 32 29 30 32 28 26 25 25 20 24 23 23 19 21 22 23 23
23 20 17 15 21 18 21 26 26 25 25 28 26 28 34 40 36 31 32 33 35 34 35 37 36 37 39 34 31 30 31 32 26 28 27 23 23 23 24 21 20 22 23 24
25 17 15 17 14 8 9 13 20 21 23 27 31 27 26 26 29 33 36 38 38 37 38 40 41 39 40 38 34 33 33 33 29 27 28 26 25 25 23 23 20 22 24 24
21 13 19 19 19 17 12 16 19 17 16 23 19 16 15 29 33 37 42 44 44 41 41 42 42 40 40 38 35 34 33 34 33 27 28 30 25 26 24 23 22 24 23 24
17 7 17 16 8 12 11 8 13 13 4 3 7 6 2 27 34 44 43 41 41 40 41 40 38 38 36 37 37 34 34 34 34 31 29 29 26 24 28 28 30 21 21 22
14 13 16 13 15 9 13 10 9 9 14 8 1 7 10 10 27 16 18 24 35 36 36 34 36 36 35 33 31 31 32 33 34 35 30 31 31 25 24 27 29 28 24 21
18 16 8 14 12 11 9 8 8 8 9 8 6 4 28 34 15 9 9 20 14 8 31 30 31 30 29 26 23 22 23 28 34 34 33 33 34 31 25 26 31 29 31 25
19 18 22 20 19 16 20 14 6 4 4 5 4 9 26 34 25 7 5 14 3 8 6 17 23 20 19 18 18 18 19 22 26 27 33 30 32 34 31 28 30 32 33 33
17 19 17 24 25 20 19 26 23 8 8 7 5 13 17 25 21 9 7 8 2 3 7 11 10 10 12 12 12 15 18 19 20 21 22 24 27 29 32 34 33 34 32 33
17 18 19 27 26 13 20 30 31 13 5 8 13 17 9 18 9 4 4 3 2 2 10 12 9 12 9 9 10 13 16 16 17 17 18 23 26 28 29 31 33 34 35 34
17 19 27 25 17 16 25 26 28 25 18 19 17 21 22 8 6 4 4 16 19 16 14 16 10 13 14 13 13 14 14 13 14 15 18 20 23 25 27 28 30 31 34 34
16 17 22 22 20 20 19 22 23 23 23 20 23 19 18 20 7 7 6 12 16 20 18 17 15 15 15 17 15 15 16 15 15 16 18 21 23 24 25 28 30 31 33 34
14 15 14 17 22 19 18 17 17 20 22 21 21 22 23 22 24 29 27 20 22 18 20 20 20 20 21 20 20 18 18 18 19 19 21 23 24 26 28 29 31 33 35 36
11 14 14 15 23 20 18 16 16 19 20 19 21 19 17 12 14 25 29 24 26 13 6 20 24 23 24 24 23 22 21 21 21 22 23 25 26 28 29 31 32 33 34 36
11 10 13 13 20 20 18 15 13 17 19 15 17 12 10 7 23 10 18 21 26 27 1 9 18 23 25 25 26 26 25 25 26 26 26 27 27 27 28 30 31 32 32 34
13 13 12 10 9 22 16 15 14 16 16 14 16 19 20 20 21 20 23 25 27 28 27 29 32 32 23 19 22 25 26 27 25 27 27 28 28 28 29 30 31 32 33 33
12 13 12 14 12 10 11 13 14 15 14 14 16 17 18 18 18 20 22 24 25 26 27 28 30 32 32 33 33 31 28 27 28 28 28 29 30 31 31 32 33 33 34 34
11 11 11 10 11 12 12 10 10 13 13 13 15 15 16 16 18 19 21 22 24 25 25 26 28 30 32 33 33 32 33 33 33 33 33 33 33 33 34 34 35 35 36 36
9 11 9 9 10 8 9 11 11 9 10 11 13 14 15 15 17 18 20 21 22 22 23 24 26 28 30 31 32 32 33 34 33 33 33 34 34 34 34 34 35 36 38 38
8 12 10 7 7 8 10 11 12 12 12 9 11 13 14 15 16 18 19 20 20 20 20 21 23 25 28 29 30 30 30 31 32 33 34 35 35 36 36 36 36 37 37 38
8 10 9 7 10 10 11 12 14 14 14 14 13 13 12 11 9 7 5 7 9 11 14 17 18 17 23 28 29 30 32 33 34 34 35 36 36 36 36 37 37 35 37 38
Wind_Direction
332 321 318 315 311 303 297 291 287 286 290 287 281 275 274 272 270 270 268 270 269 269 268 263 249 245 244 253 248 245 239 236 237 248 250 248 252 251 256 254 255 254 255 255
333 317 327 325 317 314 306 295 290 291 295 293 285 277 278 274 269 267 270 271 271 269 269 266 255 251 247 247 252 246 241 237 235 240 249 256 254 257 257 257 253 252 252 252
358 325 317 319 318 312 311 306 299 290 293 294 286 282 283 281 277 273 270 270 275 271 269 268 265 254 251 250 251 252 249 244 242 247 248 256 255 258 255 252 253 247 249 251
31 7 342 328 321 317 309 318 311 305 301 292 307 279 282 286 287 285 280 277 274 272 271 269 266 261 255 253 252 248 247 247 246 242 250 245 251 246 255 257 257 254 253 253
9 353 349 342 341 332 321 318 310 305 300 299 300 286 282 292 287 291 290 289 280 276 273 269 267 267 260 257 254 250 246 247 246 249 247 248 245 259 259 260 258 255 251 253
17 12 3 359 340 330 319 317 311 314 310 298 303 291 289 291 294 293 289 293 290 286 279 274 273 267 268 257 256 252 249 247 243 243 249 243 249 251 260 255 257 254 255 252
11 15 28 37 9 18 343 327 320 315 314 308 318 300 287 296 296 302 299 295 291 290 284 281 279 273 268 262 253 252 249 247 246 245 247 251 252 251 256 256 259 260 258 258
5 27 44 33 45 55 49 35 345 321 322 320 320 315 311 319 315 307 301 296 293 291 288 281 277 278 277 264 254 251 251 248 246 246 247 254 257 258 253 261 259 262 263 263
15 41 20 21 19 33 67 27 359 1 346 342 354 359 1 325 321 316 305 297 291 289 286 283 276 278 276 274 258 248 250 249 248 246 249 253 256 256 259 257 261 265 265 265
25 77 34 36 113 88 87 54 50 24 121 102 214 243 176 297 299 321 317 306 296 292 288 283 278 276 276 278 273 252 252 251 249 248 249 249 256 260 263 263 263 264 266 265
49 46 30 253 59 107 65 83 108 67 16 61 121 56 50 286 337 298 290 294 305 296 292 285 280 276 273 278 278 257 253 254 254 251 252 253 254 258 266 267 269 269 276 268
20 29 249 245 71 80 106 110 100 89 86 82 75 63 0 340 297 294 4 280 266 246 290 292 284 275 267 273 273 268 266 265 261 253 255 256 256 257 267 270 271 275 272 271
29 7 293 299 5 52 47 60 85 170 137 162 124 58 3 334 314 330 0 288 258 230 180 259 290 273 269 274 272 277 277 277 273 269 260 262 262 261 265 272 277 276 275 276
39 351 354 302 311 3 30 18 26 76 77 67 141 244 293 313 314 321 36 60 17 218 179 153 259 318 284 285 290 290 290 286 286 275 272 273 275 273 273 275 278 277 277 277
34 7 351 282 290 7 0 352 354 55 104 94 62 43 62 305 303 321 327 31 7 339 326 333 334 357 346 345 328 311 305 296 293 293 285 283 284 285 284 284 283 285 285 282
34 5 321 324 326 349 331 350 349 19 58 60 61 33 44 92 94 350 355 333 344 350 347 348 349 358 1 355 345 342 334 324 315 306 301 302 302 298 293 293 291 291 289 291
39 31 360 326 328 329 336 356 5 17 30 51 35 65 68 68 317 333 346 345 350 352 352 357 2 4 8 4 351 345 339 332 334 325 318 316 315 309 305 302 301 298 295 295
46 42 41 5 313 317 347 26 37 21 36 46 54 65 60 69 63 27 62 20 352 347 351 352 352 357 359 357 355 346 346 344 340 334 324 319 317 315 313 311 308 304 301 299
82 56 50 39 310 308 318 350 17 12 13 62 73 83 89 119 104 41 52 74 67 88 346 353 359 359 0 1 358 357 356 352 348 342 334 330 326 324 319 317 316 314 311 308
88 91 61 60 331 308 322 343 6 11 359 81 74 322 257 194 38 125 83 76 60 56 19 343 350 359 3 359 359 3 1 359 356 348 344 342 339 334 332 329 326 326 321 317
68 66 65 77 83 303 349 9 13 340 359 41 29 12 352 5 40 60 49 37 30 40 50 53 43 21 13 345 350 359 358 357 347 348 347 347 347 345 340 339 338 332 329 327
77 74 71 69 71 86 28 10 346 352 354 360 3 4 3 19 34 36 30 25 22 23 19 10 19 19 16 12 18 8 358 351 354 351 350 351 353 355 354 352 349 345 340 335
88 111 92 100 82 85 112 113 14 4 353 6 11 28 19 15 13 18 17 17 15 17 19 16 12 8 11 16 18 10 7 6 7 11 9 5 4 4 2 359 356 355 355 353
127 135 123 106 107 150 134 131 132 115 4 14 18 16 17 17 12 8 7 8 10 14 16 16 16 14 13 17 17 17 16 12 10 6 2 2 2 358 358 358 356 354 351 350
127 120 137 148 178 131 160 156 141 135 131 98 14 360 2 3 3 1 358 359 4 10 14 16 16 17 17 19 13 3 354 352 357 1 358 357 0 3 3 2 1 0 359 356
162 180 161 164 153 134 112 142 136 131 135 131 127 133 142 151 153 138 106 83 86 77 58 46 50 60 41 17 0 355 357 359 359 2 0 1 2 3 4 4 3 8 5 3